Tracking 27420 objects as of 28-May-2023
HD Live streaming from Space Station
objects crossing your sky now

CZ-4 DEB

Track CZ-4 DEB now!
10-day predictions


NORAD ID: 23261
Int'l Code: 1990-081CS
Perigee: 721.0 km
Apogee: 754.3 km
Inclination: 98.3 °
Period: 99.4 minutes
Semi major axis: 7108 km
RCS: 0.0028 m2 (small)
Launch date: September 3, 1990
Source: People's Republic of China (PRC)
Launch site: Taiyaun Space Center, China (TSC)

Note: This is SATELLITE DEBRIS
Your satellite tracking list
Your tracking list is empty




NASA's NSSDC Master Catalog

Two Line Element Set (TLE):
1 23261U 90081CS  23147.81542097  .00003624  00000-0  97345-3 0  9991
2 23261  98.3041 162.9329 0023434 170.2423   1.9303 14.48515148679692
Source of the keplerian elements: AFSPC